Weather observations for the past three days for
Twentynine Palms SELF Airport
Metric (Imperial)
Date Time (pdt) Wind (kph) Vis. (km) Weather Sky Cond. Temperature (ºC) Relative Humidity Wind Chill (°C) Heat Index (°C) Pressure Precipitation (cm)
Air Dwpt 6 hour altimeter (cm) sea level (mb) 1 hr 3 hr 6 hr
Max. Min.
08 12:54 Vrbl 6 16.09 NULL NULL 34.4 -5.6 7% 32 76.12 1010.9
08 11:54 Calm 16.09 NULL NULL 33.3 -4.4 8% 31 76.15 1011.4
08 10:54 NW 22 16.09 NULL NULL 32.8 -2.2 32.8 22.8 10% 30 76.17 1011.8
08 08:54 NW 20 16.09 Fair CLR 28.3 0.6 17% 27 76.25 1012.6
08 07:54 NW 15 16.09 Fair CLR 26.1 0 18% 25 76.25 1012.8
08 06:54 W 13 16.09 Fair CLR 23.9 0.6 22% 25 76.23 1012.3
08 05:54 NW 13 16.09 Fair CLR 23.3 0.6 22% 76.17 1011.7
08 04:54 N 11 16.09 Fair CLR 23.9 1.1 27.2 23.3 22% 25 76.15 1011.3
08 03:54 N 13 16.09 Fair CLR 23.9 1.7 23% 25 76.12 1011.0
08 01:54 Vrbl 6 16.09 Fair CLR 26.1 2.2 21% 26 76.12 1011.0
07 23:54 N 13 16.09 NULL NULL 26.1 3.3 23% 26 76.15 1011.3
07 22:54 NW 26 G 46 16.09 NULL NULL 27.2 3.3 33.9 27.2 21% 26 76.12 1011.1
07 21:54 W 19 G 33 16.09 NULL NULL 28.3 1.7 18% 27 76.12 1011.2
07 20:54 W 17 16.09 NULL NULL 28.9 -0.6 15% 27 76.1 1010.7
07 19:54 SW 19 16.09 NULL NULL 30 -0.6 14% 28 76.02 1009.9
07 18:54 N 9 16.09 NULL NULL 32.8 -4.4 9% 30 75.97 1009.4
07 17:54 N 9 16.09 NULL NULL 33.3 -4.4 8% 31 75.97 1009.4
07 16:54 N 11 G 30 16.09 NULL NULL 33.9 -3.9 34.4 29.4 8% 31 76 1009.6
07 15:54 NW 13 16.09 NULL NULL 33.9 -3.9 8% 31 76.02 1010.1
07 12:54 Vrbl 6 16.09 NULL NULL 31.7 -1.7 11% 30 76.23 1012.7
07 11:54 Vrbl 6 16.09 NULL NULL 31.7 -1.1 12% 30 76.28 1013.6
07 10:54 Calm 16.09 NULL NULL 30 0 30 18.3 14% 28 76.35 1014.3
07 09:54 SW 7 16.09 Fair CLR 28.3 1.7 18% 27 76.38 1014.6
07 08:54 Vrbl 7 16.09 Fair CLR 26.7 2.8 21% 26 76.38 1014.8
07 05:54 NW 7 16.09 Fair CLR 18.3 4.4 40% 76.35 1014.5
07 04:54 NW 9 16.09 Fair CLR 18.9 4.4 22.2 18.3 39% 76.33 1014.4
07 03:54 W 15 16.09 Fair CLR 19.4 3.9 36% 76.35 1014.5
07 02:54 NW 7 16.09 Fair CLR 19.4 2.2 32% 76.35 1014.5
07 01:54 W 7 16.09 Fair CLR 18.9 -1.1 26% 76.38 1014.9
07 00:54 NW 17 16.09 Fair CLR 21.1 -0.6 23% 76.38 1014.9
06 22:54 Calm 16.09 Fair CLR 22.2 3.3 28.9 22.2 29% 76.35 1014.7
06 21:54 SW 19 16.09 Fair CLR 22.8 3.3 28% 76.33 1014.4
06 20:54 S 7 16.09 NULL NULL 23.9 0 21% 24 76.3 1014.1
06 19:54 Calm 16.09 NULL NULL 26.1 0 18% 25 76.23 1013.3
06 18:54 N 17 16.09 NULL NULL 27.8 0 16% 27 76.2 1012.8
06 16:54 N 13 16.09 NULL NULL 28.3 0.6 29.4 21.7 17% 27 76.2 1012.7
06 15:54 Calm 16.09 NULL NULL 27.8 1.7 18% 27 76.2 1013.1
06 13:54 N 13 16.09 NULL NULL 26.7 1.7 20% 26 76.33 1014.8
06 12:54 Vrbl 7 16.09 Fair CLR 25 1.7 22% 25 76.38 1015.5
06 10:54 Calm 16.09 Fair CLR 21.7 2.2 21.7 12.8 28% 76.45 1016.7
06 09:54 NE 7 16.09 Fair CLR 20.6 2.8 31% 76.45 1016.6
06 07:54 W 15 16.09 Fair CLR 16.1 3.3 43% 76.45 1016.5
06 06:54 Calm 16.09 Fair CLR 13.9 2.8 47% 76.43 1016.4
06 04:54 W 17 16.09 Fair CLR 13.3 2.8 16.1 13.3 49% 76.35 1015.3
06 03:54 W 15 16.09 Fair CLR 13.3 3.3 51% 76.33 1015.0
06 02:54 W 17 16.09 Fair CLR 13.9 3.3 49% 76.3 1014.6
06 01:54 W 9 16.09 Fair CLR 14.4 3.3 48% 76.3 1014.5
06 00:54 NW 15 G 35 16.09 Fair CLR 15 3.3 46% 76.3 1014.5
05 23:54 N 15 16.09 Fair CLR 15.6 3.9 46% 76.25 1013.9
05 22:54 N 17 G 39 16.09 Fair CLR 16.1 3.9 23.3 16.1 44% 76.23 1013.6
05 21:54 NW 30 G 46 16.09 Fair CLR 17.2 3.9 41% 76.15 1012.7
05 20:54 NW 28 G 50 16.09 Fair CLR 18.3 3.3 37% 76.1 1011.8
05 19:54 W 31 G 43 16.09 Partly Cloudy SCT090 20 2.2 31% 76 1010.7
05 17:54 W 20 G 31 16.09 Overcast OVC090 22.2 -1.7 20% 75.92 1009.5
05 16:54 Vrbl 7 G 33 16.09 Fair CLR 22.2 -1.7 22.8 17.2 20% 75.9 1009.3
05 15:54 N 7 16.09 A Few Clouds FEW090 21.1 -0.6 23% 75.92 987.4
05 14:54 Calm 16.09 Overcast OVC085 21.1 0.6 26% 75.97 1010.4
Date Time (pdt) Wind (kph) Vis. (km) Weather Sky Cond. Air Dwpt Max. Min. Relative Humidity Wind Chill (°C) Heat Index (°C) altimeter (cm) sea level (mb) 1 hr 3 hr 6 hr
6 hour
Temperature (ºC) Pressure Precipitation (cm)